Regional Weather Roundup
Issued by NWS Upton, NY

Home | Current Version | Previous Version | Text Only | Print | Product List | Glossary On
Versions: 1 2 3 4 5 6 7 8 9 10 11 12 13 14 15 16 17 18 19 20 21 22 23 24 25 26 27 28 29 30 31 32 33 34 35 36 37 38 39 40 41 42 43 44 45 46 47 48 49 50
000
ASUS41 KOKX 241618
RWROKX

REGIONAL WEATHER ROUNDUP
NATIONAL WEATHER SERVICE NEW YORK NY
1200 PM EDT SUN MAY 24 2015

NOTE: "FAIR" INDICATES FEW OR NO CLOUDS BELOW 12,000 FEET WITH NO
SIGNIFICANT WEATHER AND/OR OBSTRUCTIONS TO VISIBILITY.

NYZ071-072-176-178-NJZ106-104-241700-
NEW YORK CITY METRO AREA


CITY           SKY/WX    TMP DP  RH WIND       PRES   REMARKS
CENTRAL PARK   SUNNY     76  39  26 VRB3      30.35F
LAGUARDIA APRT PTSUNNY   75  41  29 SW9G16    30.32F
KENNEDY INTL   PTSUNNY   72  48  42 S13       30.35F
NEWARK/LIBERTY PTSUNNY   78  40  25 SW14      30.32F
BRNX BOT. GARD   N/A     75  39  27 S8        30.34F
TETERBORO      SUNNY     77  39  25 W8G17     30.31F
$$

NYZ177-179-078>081-241700-
LONG ISLAND NEW YORK

CITY           SKY/WX    TMP DP  RH WIND       PRES   REMARKS
FARMINGDALE    SUNNY     71  51  49 S15       30.34F
ISLIP          PTSUNNY   71  49  45 S15       30.32F
SHIRLEY        SUNNY     67  50  54 S14       30.35S
WESTHAMPTON    SUNNY     65  52  62 SW13      30.35F
MONTAUK POINT    N/A     65  52  62 SW7       30.34S
$$

NYZ052-065-067-241700-
HUDSON VALLEY

CITY           SKY/WX    TMP DP  RH WIND       PRES   REMARKS
WHITE PLAINS   SUNNY     72  39  30 W6        30.32F
NEWBURGH       SUNNY     73  63  68 W13       30.32
MONTGOMERY     MOSUNNY   75  41  29 W7        30.29F
POUGHKEEPSIE   SUNNY     75  38  26 W6        30.28F
ALBANY         MOSUNNY   76  42  29 S8        30.25F
$$

NJZ001-105-106-008-010-013-015-019>022-104-241700-
NEW JERSEY

CITY           SKY/WX    TMP DP  RH WIND       PRES   REMARKS
NEWARK/LIBERTY PTSUNNY   78  40  25 SW14      30.32F
TETERBORO      SUNNY     77  39  25 W8G17     30.31F
CALDWELL       SUNNY     76  41  28 NW7       30.32F
MORRISTOWN     MOSUNNY   75  43  31 MISG      30.33F
SOMERVILLE     SUNNY     76  43  30 VRB3      30.31F
SUSSEX         SUNNY     75  42  30 SW7       30.31F
ANDOVER          N/A     73  43  33 SW8       30.33F
TRENTON        SUNNY     76  49  38 SW8       30.33F
MILLVILLE      SUNNY     71  53  52 VRB7      30.37F
ATLANTIC CITY  SUNNY     74  49  41 SW14      30.37F
WRIGHTSTOWN    SUNNY     75  53  44 W6        30.32F
TOMS RIVER     MOSUNNY  N/A N/A N/A SW13      30.35F
BELMAR         SUNNY     75  52  43 SW10      30.35F
$$

PAZ047>061-062-071-241700-
EASTERN PENNSYLVANIA

CITY           SKY/WX    TMP DP  RH WIND       PRES   REMARKS
PHILADELPHIA   PTSUNNY   74  52  46 W8G17     30.36F
ALLENTOWN      SUNNY     77  40  26 S10       30.33F
SCRANTON       SUNNY     75  38  26 SW9       30.32F
$$

CTZ002-004>006-009-010-012-RIZ004-006-007-MAZ004-011-015-241700-
SOUTHERN NEW ENGLAND
 IN CT

CITY           SKY/WX    TMP DP  RH WIND       PRES   REMARKS
BRADLEY INTL   MOSUNNY   78  40  25 SW10      30.25F
HARTFORD       SUNNY     75  38  26 S8G21     30.27F
DANBURY        SUNNY     73  40  30 SW13      30.32F
WTRBRY/OXFORD  MOSUNNY   72  41  33 W9        30.32F
BRIDGEPORT     SUNNY     70  46  42 SW15      30.32F
MERIDEN        SUNNY     77  35  21 VRB7      30.29F
NEW HAVEN      PTSUNNY   67  44  43 SW10      30.31F
CHESTER        FAIR      72  43  35 W10G20    30.31F
GROTON         SUNNY     65  45  48 SW15      30.30F
WILLIMANTIC    SUNNY     76  31  19 W9G18     30.28F

 IN RI

CITY           SKY/WX    TMP DP  RH WIND       PRES   REMARKS
PROVIDENCE     MOSUNNY   77  34  21 SW13G18   30.27F
BLOCK ISLAND   SUNNY     59  48  67 SW22G29   30.34R
WESTERLY       SUNNY     65  42  43 SW13G23   30.31F

 IN MA

CITY           SKY/WX    TMP DP  RH WIND       PRES   REMARKS
BOSTON         SUNNY     77  36  22 SW13G22   30.22F
WORCESTER      SUNNY     73  35  25 W14G25    30.27S
WESTFIELD      SUNNY     77  39  25 S7        30.25F
PROVINCETOWN   SUNNY     66  50  55 SW18G25   30.24F
NANTUCKET      SUNNY     62  51  67 SW18G26   30.33R
$$

ANZ330-335-338-340-345-350-353-355-241700-
COASTAL MARINE OBSERVATIONS


STATION/POSITION TIME  SKY/WX   TEMP    WIND        PRES    VSBY  WAVE
                                AIR SEA DIR/SP/G                  HT/PER
                 (UTC)          (F)     (DEG/KT/KT) (MB)    (MI)  (FT/S)
NY HARB ENTRANCE 1550            58 55  180/ 12/ 14 1027.5          2/ 3
4S FIRE IS       1503               54                N/A           2/ 5
20S FIRE ISLAND  1550            57 55  210/ 12/ 14 1028.3          2/ 4
GREAT SOUTH BAY  1500            58 62  220/ 16/ 17   N/A
23SW MTP         1550            55 53  240/ 17/ 19 1027.5          3/ 4
HUDSON CANYON    NOT AVBL
KINGS POINT      1500            65 64  280/  5/  7 1026.8
CENTRAL LI SOUND 1530            57 52  270/ 10/ 12   N/A
EASTERN LI SOUND 1500            55     230/ 12/ 14   N/A
ROBBINS REEF     1500            69     260/ 14/ 16 1026.3
$$


>>>>>>>>>>>>>>>>>>>>>>>>>>>> KEY <<<<<<<<<<<<<<<<<<<<<<<<<<<
>                                                          <
>     SKY/WX - SKY CONDITION/PRESENT WEATHER               <
>     TMP    - TEMPERATURE IN FAHRENHEIT                   <
>     DP     - DEWPOINT IN FAHRENHEIT                      <
>     RH     - RELATIVE HUMIDITY IN PERCENT                <
>     WIND   - DIRECTION AND SPEED IN MPH                  <
>     PRES   - MEAN SEA LEVEL PRESSURE IN INCHES OF HG     <
>     WCI    - WIND CHILL INDEX                            <
>     VSB    - VISIBILITY IN MILES                         <
>     HX     - HEAT INDEX                                  <
>     TC     - TEMPERATURE IN CELSIUS                      <
>     VRB    - VARIABLE WIND DIRECTION                     <
>                                                          <
>>>>>>>>>>>>>>>>>>>>>>>>>>>> KEY <<<<<<<<<<<<<<<<<<<<<<<<<<<





USA.gov is the U.S. government's official web portal to all federal, state and local government web resources and services.